Time,TemperatureF,DewpointF,PressureIn,WindDirection,WindDirectionDegrees,WindSpeedMPH,WindSpeedGustMPH,Humidity,HourlyPrecipIn,Conditions,Clouds,dailyrainin,SoftwareType,DateUTC
2013-04-09 00:00:00,67.1,45.5,29.58,SSE,158,0.0,0.0,46,0.00,,,0.00,WUHU216HW,2013-04-09 04:00:00,
2013-04-09 00:01:00,67.1,45.5,29.57,SSE,158,0.0,0.0,46,0.00,,,0.00,WUHU216HW,2013-04-09 04:01:00,
2013-04-09 00:02:00,67.1,45.5,29.58,SSE,158,0.0,0.0,46,0.00,,,0.00,WUHU216HW,2013-04-09 04:02:00,
2013-04-09 00:07:00,66.9,45.9,29.58,SSE,158,0.0,0.0,47,0.00,,,0.00,WUHU216HW,2013-04-09 04:07:00,
2013-04-09 00:12:00,66.7,45.8,29.58,SSE,158,0.0,0.0,47,0.00,,,0.00,WUHU216HW,2013-04-09 04:12:00,
2013-04-09 00:17:00,66.7,45.8,29.58,SE,135,0.0,1.5,47,0.00,,,0.00,WUHU216HW,2013-04-09 04:17:00,
2013-04-09 00:22:00,66.9,45.9,29.58,SE,135,0.0,1.5,47,0.00,,,0.00,WUHU216HW,2013-04-09 04:22:00,
2013-04-09 00:27:00,67.2,45.7,29.58,ESE,113,0.0,0.0,46,0.00,,,0.00,WUHU216HW,2013-04-09 04:27:00,
2013-04-09 00:32:00,67.6,46.0,29.58,SE,135,0.0,0.0,46,0.00,,,0.00,WUHU216HW,2013-04-09 04:32:00,
2013-04-09 00:37:00,67.8,46.2,29.59,ESE,113,0.0,2.6,46,0.00,,,0.00,WUHU216HW,2013-04-09 04:37:00,
2013-04-09 00:42:00,68.0,46.5,29.59,ESE,113,0.0,2.6,46,0.00,,,0.00,WUHU216HW,2013-04-09 04:42:00,
2013-04-09 00:47:00,68.1,45.9,29.59,SE,135,0.0,2.2,45,0.00,,,0.00,WUHU216HW,2013-04-09 04:47:00,
2013-04-09 00:52:00,68.3,46.0,29.59,SE,135,0.0,2.2,45,0.00,,,0.00,WUHU216HW,2013-04-09 04:52:00,
2013-04-09 00:57:00,68.1,45.9,29.59,SSE,158,0.0,0.0,45,0.00,,,0.00,WUHU216HW,2013-04-09 04:57:00,
2013-04-09 01:02:00,68.1,45.9,29.59,ESE,113,0.0,0.0,45,0.00,,,0.00,WUHU216HW,2013-04-09 05:02:00,
2013-04-09 01:08:00,68.0,46.3,29.59,ESE,113,0.0,0.0,46,0.00,,,0.00,WUHU216HW,2013-04-09 05:08:00,
2013-04-09 01:13:00,67.8,46.2,29.59,ESE,113,0.0,0.0,46,0.00,,,0.00,WUHU216HW,2013-04-09 05:13:00,
2013-04-09 01:18:00,67.6,46.0,29.59,SSE,158,0.0,1.1,46,0.00,,,0.00,WUHU216HW,2013-04-09 05:18:00,
2013-04-09 01:23:00,67.2,46.3,29.59,SSE,158,0.0,1.1,47,0.00,,,0.00,WUHU216HW,2013-04-09 05:23:00,
2013-04-09 01:28:00,66.9,45.9,29.59,ESE,113,0.0,0.0,47,0.00,,,0.00,WUHU216HW,2013-04-09 05:28:00,
2013-04-09 01:33:00,66.7,45.8,29.59,ESE,113,0.0,0.0,47,0.00,,,0.00,WUHU216HW,2013-04-09 05:33:00,
2013-04-09 01:38:00,66.3,46.0,29.59,SSE,158,0.0,0.0,48,0.00,,,0.00,WUHU216HW,2013-04-09 05:38:00,
2013-04-09 01:43:00,66.2,45.9,29.59,SSE,158,0.0,0.0,48,0.00,,,0.00,WUHU216HW,2013-04-09 05:43:00,
2013-04-09 01:48:00,66.0,46.3,29.59,SE,135,0.0,0.0,49,0.00,,,0.00,WUHU216HW,2013-04-09 05:48:00,
2013-04-09 01:53:00,65.8,46.1,29.59,SE,135,0.0,0.0,49,0.00,,,0.00,WUHU216HW,2013-04-09 05:53:00,
2013-04-09 01:58:00,65.4,45.8,29.60,South,180,0.0,0.0,49,0.00,,,0.00,WUHU216HW,2013-04-09 05:58:00,
2013-04-09 02:03:00,65.1,46.0,29.60,South,180,0.0,0.0,50,0.00,,,0.00,WUHU216HW,2013-04-09 06:03:00,
2013-04-09 02:08:00,64.9,45.8,29.59,ESE,113,0.0,0.0,50,0.00,,,0.00,WUHU216HW,2013-04-09 06:08:00,
2013-04-09 02:13:00,64.5,45.9,29.59,ESE,113,0.0,0.0,51,0.00,,,0.00,WUHU216HW,2013-04-09 06:13:00,
2013-04-09 02:18:00,64.2,45.6,29.59,ESE,113,0.0,0.0,51,0.00,,,0.00,WUHU216HW,2013-04-09 06:18:00,
2013-04-09 02:23:00,64.0,45.4,29.59,ESE,113,0.0,0.0,51,0.00,,,0.00,WUHU216HW,2013-04-09 06:23:00,
2013-04-09 02:28:00,63.6,45.6,29.59,ESE,113,0.0,0.0,52,0.00,,,0.00,WUHU216HW,2013-04-09 06:28:00,
2013-04-09 02:33:00,63.3,45.3,29.59,ESE,113,0.0,0.0,52,0.00,,,0.00,WUHU216HW,2013-04-09 06:33:00,
2013-04-09 02:38:00,63.1,45.6,29.59,ESE,113,0.0,0.0,53,0.00,,,0.00,WUHU216HW,2013-04-09 06:38:00,
2013-04-09 02:43:00,62.7,45.3,29.59,ESE,113,0.0,0.0,53,0.00,,,0.00,WUHU216HW,2013-04-09 06:43:00,
2013-04-09 02:49:00,62.4,44.9,29.59,ESE,113,0.0,0.0,53,0.00,,,0.00,WUHU216HW,2013-04-09 06:49:00,
2013-04-09 02:54:00,62.2,45.3,29.59,ESE,113,0.0,0.0,54,0.00,,,0.00,WUHU216HW,2013-04-09 06:54:00,
2013-04-09 02:59:00,61.8,45.4,29.59,ESE,113,0.0,0.0,55,0.00,,,0.00,WUHU216HW,2013-04-09 06:59:00,
2013-04-09 03:04:00,61.5,45.1,29.59,ESE,113,0.0,0.0,55,0.00,,,0.00,WUHU216HW,2013-04-09 07:04:00,
2013-04-09 03:09:00,61.3,45.4,29.59,ESE,113,0.0,0.0,56,0.00,,,0.00,WUHU216HW,2013-04-09 07:09:00,
2013-04-09 03:14:00,61.1,45.8,29.60,ESE,113,0.0,0.0,57,0.00,,,0.00,WUHU216HW,2013-04-09 07:14:00,
2013-04-09 03:19:00,60.9,45.6,29.60,SE,135,0.0,0.0,57,0.00,,,0.00,WUHU216HW,2013-04-09 07:19:00,
2013-04-09 03:24:00,61.1,45.8,29.60,SE,135,0.0,0.0,57,0.00,,,0.00,WUHU216HW,2013-04-09 07:24:00,
2013-04-09 03:29:00,60.9,46.2,29.60,ESE,113,0.0,0.0,58,0.00,,,0.00,WUHU216HW,2013-04-09 07:29:00,
2013-04-09 03:34:00,60.9,45.9,29.60,ESE,113,0.0,0.0,58,0.00,,,0.00,WUHU216HW,2013-04-09 07:34:00,
2013-04-09 03:40:00,60.6,45.7,29.61,ESE,113,0.0,0.0,58,0.00,,,0.00,WUHU216HW,2013-04-09 07:40:00,
2013-04-09 03:45:00,60.4,46.0,29.61,ESE,113,0.0,0.0,59,0.00,,,0.00,WUHU216HW,2013-04-09 07:45:00,
2013-04-09 03:50:00,60.2,45.9,29.61,ESE,113,0.0,0.0,59,0.00,,,0.00,WUHU216HW,2013-04-09 07:50:00,
2013-04-09 03:55:00,59.9,46.0,29.61,ESE,113,0.0,0.0,60,0.00,,,0.00,WUHU216HW,2013-04-09 07:55:00,
2013-04-09 04:00:00,59.7,45.8,29.61,ESE,113,0.0,0.0,60,0.00,,,0.00,WUHU216HW,2013-04-09 08:00:00,
2013-04-09 04:05:00,59.5,45.6,29.61,ESE,113,0.0,0.0,60,0.00,,,0.00,WUHU216HW,2013-04-09 08:05:00,
2013-04-09 04:10:00,59.5,46.0,29.61,ESE,113,0.0,0.0,61,0.00,,,0.00,WUHU216HW,2013-04-09 08:10:00,
2013-04-09 04:16:00,59.3,45.9,29.61,ESE,113,0.0,0.0,61,0.00,,,0.00,WUHU216HW,2013-04-09 08:16:00,
2013-04-09 04:21:00,59.1,45.7,29.61,ESE,113,0.0,0.0,61,0.00,,,0.00,WUHU216HW,2013-04-09 08:21:00,
2013-04-09 04:26:00,58.8,45.7,29.62,ESE,113,0.0,0.0,62,0.00,,,0.00,WUHU216HW,2013-04-09 08:26:00,
2013-04-09 04:31:00,58.8,45.7,29.62,ESE,113,0.0,0.0,62,0.00,,,0.00,WUHU216HW,2013-04-09 08:31:00,
2013-04-09 04:36:00,58.8,45.7,29.62,ESE,113,0.0,0.0,62,0.00,,,0.00,WUHU216HW,2013-04-09 08:36:00,
2013-04-09 04:41:00,58.8,45.7,29.62,ESE,113,0.0,0.0,62,0.00,,,0.00,WUHU216HW,2013-04-09 08:41:00,
2013-04-09 04:46:00,58.8,45.7,29.62,ESE,113,0.0,0.0,62,0.00,,,0.00,WUHU216HW,2013-04-09 08:46:00,
2013-04-09 04:51:00,58.8,45.7,29.62,ESE,113,0.0,0.0,62,0.00,,,0.00,WUHU216HW,2013-04-09 08:51:00,
2013-04-09 04:56:00,58.8,46.2,29.62,ESE,113,0.0,0.0,63,0.00,,,0.00,WUHU216HW,2013-04-09 08:56:00,
2013-04-09 05:01:00,58.8,46.2,29.62,ESE,113,0.0,0.0,63,0.00,,,0.00,WUHU216HW,2013-04-09 09:01:00,
2013-04-09 05:06:00,58.8,46.2,29.63,ESE,113,0.0,0.0,63,0.00,,,0.00,WUHU216HW,2013-04-09 09:06:00,
2013-04-09 05:12:00,58.6,46.0,29.63,ESE,113,0.0,0.0,63,0.00,,,0.00,WUHU216HW,2013-04-09 09:12:00,
2013-04-09 05:17:00,58.4,46.2,29.63,ESE,113,0.0,0.0,64,0.00,,,0.00,WUHU216HW,2013-04-09 09:17:00,
2013-04-09 05:22:00,58.2,46.1,29.63,ESE,113,0.0,0.0,64,0.00,,,0.00,WUHU216HW,2013-04-09 09:22:00,
2013-04-09 05:27:00,58.2,46.1,29.63,ESE,113,0.0,0.0,64,0.00,,,0.00,WUHU216HW,2013-04-09 09:27:00,
2013-04-09 05:32:00,58.1,45.9,29.63,SSW,203,0.0,0.0,64,0.00,,,0.00,WUHU216HW,2013-04-09 09:32:00,
2013-04-09 05:37:00,58.1,45.9,29.63,SSW,203,0.0,0.0,64,0.00,,,0.00,WUHU216HW,2013-04-09 09:37:00,
2013-04-09 05:42:00,58.1,45.9,29.64,SSW,203,0.0,0.0,64,0.00,,,0.00,WUHU216HW,2013-04-09 09:42:00,
2013-04-09 05:47:00,58.1,45.9,29.64,SSW,203,0.0,0.0,64,0.00,,,0.00,WUHU216HW,2013-04-09 09:47:00,
2013-04-09 05:52:00,57.9,46.1,29.64,SSW,203,0.0,0.0,65,0.00,,,0.00,WUHU216HW,2013-04-09 09:52:00,
2013-04-09 05:57:00,57.9,46.1,29.64,SSW,203,0.0,0.0,65,0.00,,,0.00,WUHU216HW,2013-04-09 09:57:00,
2013-04-09 06:02:00,57.7,46.4,29.64,SSW,203,0.0,0.0,66,0.00,,,0.00,WUHU216HW,2013-04-09 10:02:00,
2013-04-09 06:07:00,57.5,46.2,29.65,SSW,203,0.0,0.0,66,0.00,,,0.00,WUHU216HW,2013-04-09 10:07:00,
2013-04-09 06:12:00,57.3,46.4,29.65,SSW,203,0.0,0.0,67,0.00,,,0.00,WUHU216HW,2013-04-09 10:12:00,
2013-04-09 06:17:00,57.0,46.1,29.65,SSW,203,0.0,0.0,67,0.00,,,0.00,WUHU216HW,2013-04-09 10:17:00,
2013-04-09 06:22:00,57.0,46.1,29.64,SSW,203,0.0,0.0,67,0.00,,,0.00,WUHU216HW,2013-04-09 10:22:00,
2013-04-09 06:27:00,56.8,45.9,29.65,SSW,203,0.0,0.0,67,0.00,,,0.00,WUHU216HW,2013-04-09 10:27:00,
2013-04-09 06:32:00,56.6,46.3,29.65,SSW,203,0.0,0.0,68,0.00,,,0.00,WUHU216HW,2013-04-09 10:32:00,
2013-04-09 06:38:00,56.4,45.6,29.66,SSW,203,0.0,0.0,68,0.00,,,0.00,WUHU216HW,2013-04-09 10:38:00,
2013-04-09 06:43:00,56.4,46.0,29.66,SSW,203,0.0,0.0,68,0.00,,,0.00,WUHU216HW,2013-04-09 10:43:00,
2013-04-09 06:48:00,56.3,46.2,29.66,SSW,203,0.0,0.0,69,0.00,,,0.00,WUHU216HW,2013-04-09 10:48:00,
2013-04-09 06:53:00,56.1,46.0,29.66,SSW,203,0.0,0.0,69,0.00,,,0.00,WUHU216HW,2013-04-09 10:53:00,
2013-04-09 06:58:00,56.1,46.0,29.66,SSW,203,0.0,0.0,69,0.00,,,0.00,WUHU216HW,2013-04-09 10:58:00,
2013-04-09 07:03:00,55.9,46.3,29.67,SSW,203,0.0,0.0,70,0.00,,,0.00,WUHU216HW,2013-04-09 11:03:00,
2013-04-09 07:08:00,55.9,46.3,29.67,SSW,203,0.0,0.0,70,0.00,,,0.00,WUHU216HW,2013-04-09 11:08:00,
2013-04-09 07:13:00,55.9,46.3,29.67,South,180,0.0,0.0,70,0.00,,,0.00,WUHU216HW,2013-04-09 11:13:00,
2013-04-09 07:18:00,56.1,46.8,29.67,South,180,0.0,0.0,71,0.00,,,0.00,WUHU216HW,2013-04-09 11:18:00,
2013-04-09 07:23:00,56.3,47.0,29.67,SSE,158,0.0,0.0,71,0.00,,,0.00,WUHU216HW,2013-04-09 11:23:00,
2013-04-09 07:28:00,56.4,47.1,29.68,SSE,158,0.0,0.0,71,0.00,,,0.00,WUHU216HW,2013-04-09 11:28:00,
2013-04-09 07:33:00,56.8,47.4,29.67,SSE,158,0.0,0.0,71,0.00,,,0.00,WUHU216HW,2013-04-09 11:33:00,
2013-04-09 07:38:00,57.0,47.6,29.68,NE,45,0.0,0.0,71,0.00,,,0.00,WUHU216HW,2013-04-09 11:38:00,
2013-04-09 07:43:00,57.3,48.0,29.68,NE,45,0.0,0.0,71,0.00,,,0.00,WUHU216HW,2013-04-09 11:43:00,
2013-04-09 07:49:00,57.7,48.3,29.68,NE,45,0.0,0.0,71,0.00,,,0.00,WUHU216HW,2013-04-09 11:49:00,
2013-04-09 07:54:00,58.2,48.9,29.68,NE,45,0.0,0.0,71,0.00,,,0.00,WUHU216HW,2013-04-09 11:54:00,
2013-04-09 07:59:00,58.8,49.4,29.68,NE,45,0.0,0.0,71,0.00,,,0.00,WUHU216HW,2013-04-09 11:59:00,
2013-04-09 08:04:00,59.3,49.6,29.69,NE,45,0.0,0.0,70,0.00,,,0.00,WUHU216HW,2013-04-09 12:04:00,
2013-04-09 08:09:00,60.0,50.3,29.69,NE,45,0.0,0.0,70,0.00,,,0.00,WUHU216HW,2013-04-09 12:09:00,
2013-04-09 08:14:00,60.9,51.2,29.69,NE,45,0.0,0.0,70,0.00,,,0.00,WUHU216HW,2013-04-09 12:14:00,
2013-04-09 08:19:00,61.5,51.3,29.69,NE,45,0.0,0.0,69,0.00,,,0.00,WUHU216HW,2013-04-09 12:19:00,
2013-04-09 08:24:00,62.2,51.5,29.70,NE,45,0.0,0.0,68,0.00,,,0.00,WUHU216HW,2013-04-09 12:24:00,
2013-04-09 08:30:00,62.9,52.2,29.69,NE,45,0.0,0.0,68,0.00,,,0.00,WUHU216HW,2013-04-09 12:30:00,
2013-04-09 08:35:00,63.5,52.5,29.69,ENE,68,0.0,0.0,67,0.00,,,0.00,WUHU216HW,2013-04-09 12:35:00,
2013-04-09 08:40:00,64.2,52.1,29.69,ENE,68,0.0,0.0,65,0.00,,,0.00,WUHU216HW,2013-04-09 12:40:00,
2013-04-09 08:45:00,64.9,52.4,29.69,ESE,113,0.0,0.0,64,0.00,,,0.00,WUHU216HW,2013-04-09 12:45:00,
2013-04-09 08:50:00,65.6,52.6,29.69,ESE,113,0.0,0.0,63,0.00,,,0.00,WUHU216HW,2013-04-09 12:50:00,
2013-04-09 08:55:00,66.3,52.9,29.69,SW,225,0.0,0.0,62,0.00,,,0.00,WUHU216HW,2013-04-09 12:55:00,
2013-04-09 09:00:00,67.1,53.6,29.69,SSW,203,0.0,0.0,62,0.00,,,0.00,WUHU216HW,2013-04-09 13:00:00,
2013-04-09 09:05:00,68.1,53.7,29.69,South,180,0.0,0.0,60,0.00,,,0.00,WUHU216HW,2013-04-09 13:05:00,
2013-04-09 09:10:00,69.6,54.2,29.69,SSW,203,0.0,0.0,58,0.00,,,0.00,WUHU216HW,2013-04-09 13:10:00,
2013-04-09 09:15:00,71.2,55.1,29.69,West,270,0.0,0.0,57,0.00,,,0.00,WUHU216HW,2013-04-09 13:15:00,
2013-04-09 09:20:00,72.1,54.9,29.69,SW,225,0.0,3.5,55,0.00,,,0.00,WUHU216HW,2013-04-09 13:20:00,
2013-04-09 09:25:00,73.2,55.4,29.69,South,180,0.0,3.5,54,0.00,,,0.00,WUHU216HW,2013-04-09 13:25:00,
2013-04-09 09:30:00,74.1,55.3,29.70,South,180,0.0,3.5,52,0.00,,,0.00,WUHU216HW,2013-04-09 13:30:00,
2013-04-09 09:35:00,74.8,55.5,29.69,SW,225,0.0,4.0,51,0.00,,,0.00,WUHU216HW,2013-04-09 13:35:00,
2013-04-09 09:40:00,75.0,55.2,29.70,West,270,0.0,6.0,50,0.00,,,0.00,WUHU216HW,2013-04-09 13:40:00,
2013-04-09 09:46:00,75.3,55.5,29.70,SW,225,0.0,6.0,50,0.00,,,0.00,WUHU216HW,2013-04-09 13:46:00,
2013-04-09 09:51:00,75.5,55.7,29.70,NW,315,0.0,8.0,50,0.00,,,0.00,WUHU216HW,2013-04-09 13:51:00,
2013-04-09 09:56:00,75.9,56.0,29.70,WSW,248,0.0,8.0,50,0.00,,,0.00,WUHU216HW,2013-04-09 13:56:00,
2013-04-09 10:01:00,76.2,56.3,29.70,West,270,0.0,4.9,50,0.00,,,0.00,WUHU216HW,2013-04-09 14:01:00,
2013-04-09 10:06:00,76.6,55.9,29.70,WSW,248,0.0,4.9,49,0.00,,,0.00,WUHU216HW,2013-04-09 14:06:00,
2013-04-09 10:11:00,76.8,56.8,29.70,WSW,248,0.0,3.3,50,0.00,,,0.00,WUHU216HW,2013-04-09 14:11:00,
2013-04-09 10:16:00,77.1,55.9,29.71,West,270,1.5,4.4,48,0.00,,,0.00,WUHU216HW,2013-04-09 14:16:00,
2013-04-09 10:22:00,77.3,56.1,29.70,NNW,338,0.0,8.7,48,0.00,,,0.00,WUHU216HW,2013-04-09 14:22:00,
2013-04-09 10:27:00,77.5,55.6,29.70,NW,315,2.9,9.3,47,0.00,,,0.00,WUHU216HW,2013-04-09 14:27:00,
2013-04-09 10:32:00,77.5,56.2,29.71,NNW,338,8.7,10.5,47,0.00,,,0.00,WUHU216HW,2013-04-09 14:32:00,
2013-04-09 10:37:00,77.3,55.5,29.71,WNW,293,0.0,10.9,47,0.00,,,0.00,WUHU216HW,2013-04-09 14:37:00,
2013-04-09 10:42:00,77.5,56.2,29.71,West,270,0.6,10.9,48,0.00,,,0.00,WUHU216HW,2013-04-09 14:42:00,
2013-04-09 10:47:00,77.9,57.2,29.70,WNW,293,5.1,6.9,49,0.00,,,0.00,WUHU216HW,2013-04-09 14:47:00,
2013-04-09 10:52:00,78.2,56.3,29.70,SW,225,0.0,6.9,47,0.00,,,0.00,WUHU216HW,2013-04-09 14:52:00,
2013-04-09 10:57:00,78.6,57.2,29.70,West,270,0.0,6.9,48,0.00,,,0.00,WUHU216HW,2013-04-09 14:57:00,
2013-04-09 11:02:00,79.1,57.1,29.70,NW,315,11.1,11.1,47,0.00,,,0.00,WUHU216HW,2013-04-09 15:02:00,
2013-04-09 11:07:00,79.1,56.5,29.70,WNW,293,5.8,11.1,46,0.00,,,0.00,WUHU216HW,2013-04-09 15:07:00,
2013-04-09 11:12:00,79.3,56.6,29.70,West,270,0.0,10.2,46,0.00,,,0.00,WUHU216HW,2013-04-09 15:12:00,
2013-04-09 11:17:00,79.5,57.4,29.70,West,270,0.0,5.5,47,0.00,,,0.00,WUHU216HW,2013-04-09 15:17:00,
2013-04-09 11:23:00,80.2,57.4,29.70,NW,315,0.0,6.9,46,0.00,,,0.00,WUHU216HW,2013-04-09 15:23:00,
2013-04-09 11:28:00,80.4,57.0,29.70,WSW,248,1.1,6.9,45,0.00,,,0.00,WUHU216HW,2013-04-09 15:28:00,
2013-04-09 11:33:00,80.6,57.2,29.70,SW,225,7.1,7.8,45,0.00,,,0.00,WUHU216HW,2013-04-09 15:33:00,
2013-04-09 11:38:00,80.9,57.5,29.70,West,270,0.0,7.8,45,0.00,,,0.00,WUHU216HW,2013-04-09 15:38:00,
2013-04-09 11:43:00,81.1,56.4,29.70,SSW,203,3.8,5.3,43,0.00,,,0.00,WUHU216HW,2013-04-09 15:43:00,
2013-04-09 11:48:00,81.3,57.2,29.70,West,270,2.4,5.3,44,0.00,,,0.00,WUHU216HW,2013-04-09 15:48:00,
2013-04-09 11:53:00,81.6,56.9,29.70,West,270,0.0,5.1,43,0.00,,,0.00,WUHU216HW,2013-04-09 15:53:00,
2013-04-09 11:58:00,82.0,57.7,29.70,NW,315,5.5,5.5,44,0.00,,,0.00,WUHU216HW,2013-04-09 15:58:00,
2013-04-09 12:03:00,81.6,56.9,29.70,WNW,293,5.5,8.5,43,0.00,,,0.00,WUHU216HW,2013-04-09 16:03:00,
2013-04-09 12:08:00,81.5,58.0,29.70,WNW,293,4.2,8.5,45,0.00,,,0.00,WUHU216HW,2013-04-09 16:08:00,
2013-04-09 12:13:00,81.3,57.2,29.69,West,270,1.7,6.2,44,0.00,,,0.00,WUHU216HW,2013-04-09 16:13:00,
2013-04-09 12:19:00,81.3,57.2,29.69,West,270,0.0,7.1,44,0.00,,,0.00,WUHU216HW,2013-04-09 16:19:00,
2013-04-09 12:24:00,81.6,57.5,29.69,West,270,0.0,7.1,44,0.00,,,0.00,WUHU216HW,2013-04-09 16:24:00,
2013-04-09 12:29:00,82.0,57.8,29.68,SW,225,4.0,8.7,44,0.00,,,0.00,WUHU216HW,2013-04-09 16:29:00,
2013-04-09 12:34:00,82.2,56.8,29.68,WNW,293,0.0,12.0,42,0.00,,,0.00,WUHU216HW,2013-04-09 16:34:00,
2013-04-09 12:39:00,82.5,57.7,29.68,SW,225,9.8,12.0,43,0.00,,,0.00,WUHU216HW,2013-04-09 16:39:00,
2013-04-09 12:45:00,83.1,58.2,29.68,NW,315,4.0,9.8,43,0.00,,,0.00,WUHU216HW,2013-04-09 16:45:00,
2013-04-09 12:50:00,82.7,57.3,29.67,WNW,293,3.5,6.9,42,0.00,,,0.00,WUHU216HW,2013-04-09 16:50:00,
2013-04-09 12:55:00,82.7,57.9,29.67,SW,225,4.0,8.2,43,0.00,,,0.00,WUHU216HW,2013-04-09 16:55:00,
2013-04-09 13:00:00,82.7,57.9,29.67,WSW,248,1.5,8.2,43,0.00,,,0.00,WUHU216HW,2013-04-09 17:00:00,
2013-04-09 13:05:00,83.4,56.7,29.67,SSE,158,0.0,6.0,40,0.00,,,0.00,WUHU216HW,2013-04-09 17:05:00,
2013-04-09 13:10:00,84.0,58.4,29.67,SSW,203,5.8,8.7,42,0.00,,,0.00,WUHU216HW,2013-04-09 17:10:00,
2013-04-09 13:15:00,84.5,57.7,29.66,West,270,4.6,8.7,40,0.00,,,0.00,WUHU216HW,2013-04-09 17:15:00,
2013-04-09 13:20:00,84.7,57.8,29.67,WNW,293,6.4,8.9,40,0.00,,,0.00,WUHU216HW,2013-04-09 17:20:00,
2013-04-09 13:25:00,84.7,57.8,29.67,NNW,338,6.2,8.9,40,0.00,,,0.00,WUHU216HW,2013-04-09 17:25:00,
2013-04-09 13:30:00,85.2,58.3,29.66,West,270,0.0,7.6,40,0.00,,,0.00,WUHU216HW,2013-04-09 17:30:00,
2013-04-09 13:35:00,85.8,58.8,29.66,SW,225,0.0,5.3,40,0.00,,,0.00,WUHU216HW,2013-04-09 17:35:00,
2013-04-09 13:41:00,86.3,58.5,29.66,NW,315,4.0,8.9,39,0.00,,,0.00,WUHU216HW,2013-04-09 17:41:00,
2013-04-09 13:46:00,86.5,57.7,29.66,West,270,0.0,5.8,38,0.00,,,0.00,WUHU216HW,2013-04-09 17:46:00,
2013-04-09 13:51:00,85.8,57.2,29.66,NW,315,0.0,5.8,38,0.00,,,0.00,WUHU216HW,2013-04-09 17:51:00,
2013-04-09 13:57:00,85.8,57.2,29.66,SSW,203,3.1,3.1,38,0.00,,,0.00,WUHU216HW,2013-04-09 17:57:00,
2013-04-09 14:02:00,86.3,57.7,29.65,SSW,203,0.0,5.8,38,0.00,,,0.00,WUHU216HW,2013-04-09 18:02:00,
2013-04-09 14:07:00,86.3,56.9,29.64,WNW,293,0.0,5.8,37,0.00,,,0.00,WUHU216HW,2013-04-09 18:07:00,
2013-04-09 14:12:00,86.1,57.5,29.64,SSW,203,0.4,4.6,38,0.00,,,0.00,WUHU216HW,2013-04-09 18:12:00,
2013-04-09 14:17:00,85.4,56.9,29.64,SW,225,0.0,4.6,38,0.00,,,0.00,WUHU216HW,2013-04-09 18:17:00,
2013-04-09 14:22:00,85.2,56.7,29.64,WSW,248,0.0,0.0,38,0.00,,,0.00,WUHU216HW,2013-04-09 18:22:00,
2013-04-09 14:27:00,86.0,57.4,29.64,SW,225,3.3,4.0,38,0.00,,,0.00,WUHU216HW,2013-04-09 18:27:00,
2013-04-09 14:32:00,86.5,57.0,29.63,SW,225,0.0,4.0,37,0.00,,,0.00,WUHU216HW,2013-04-09 18:32:00,
2013-04-09 14:37:00,87.0,57.7,29.63,NW,315,0.0,6.0,38,0.00,,,0.00,WUHU216HW,2013-04-09 18:37:00,
2013-04-09 14:42:00,87.2,57.7,29.63,NW,315,0.0,6.0,37,0.00,,,0.00,WUHU216HW,2013-04-09 18:42:00,
2013-04-09 14:47:00,87.4,57.8,29.63,SW,225,10.7,10.7,37,0.00,,,0.00,WUHU216HW,2013-04-09 18:47:00,
2013-04-09 14:52:00,87.6,57.2,29.63,WSW,248,0.0,10.7,36,0.00,,,0.00,WUHU216HW,2013-04-09 18:52:00,
2013-04-09 14:57:00,87.6,57.2,29.63,WSW,248,0.0,6.7,36,0.00,,,0.00,WUHU216HW,2013-04-09 18:57:00,
2013-04-09 15:03:00,88.1,59.2,29.62,South,180,0.0,1.5,38,0.00,,,0.00,WUHU216HW,2013-04-09 19:03:00,
2013-04-09 15:08:00,88.7,57.9,29.62,SSW,203,0.0,2.2,36,0.00,,,0.00,WUHU216HW,2013-04-09 19:08:00,
2013-04-09 15:13:00,89.2,57.7,29.62,SE,135,0.0,2.2,35,0.00,,,0.00,WUHU216HW,2013-04-09 19:13:00,
2013-04-09 15:18:00,89.2,56.9,29.62,SW,225,5.1,5.3,34,0.00,,,0.00,WUHU216HW,2013-04-09 19:18:00,
2013-04-09 15:23:00,89.4,57.1,29.62,SSW,203,0.0,5.3,34,0.00,,,0.00,WUHU216HW,2013-04-09 19:23:00,
2013-04-09 15:28:00,89.4,57.9,29.61,ESE,113,1.7,1.7,35,0.00,,,0.00,WUHU216HW,2013-04-09 19:28:00,
2013-04-09 15:33:00,89.7,57.4,29.61,West,270,0.0,1.7,34,0.00,,,0.00,WUHU216HW,2013-04-09 19:33:00,
2013-04-09 15:38:00,89.7,57.4,29.61,South,180,0.0,5.5,34,0.00,,,0.00,WUHU216HW,2013-04-09 19:38:00,
2013-04-09 15:43:00,89.4,56.3,29.61,ESE,113,0.0,5.5,33,0.00,,,0.00,WUHU216HW,2013-04-09 19:43:00,
2013-04-09 15:48:00,89.2,56.9,29.60,WSW,248,0.0,4.2,34,0.00,,,0.00,WUHU216HW,2013-04-09 19:48:00,
2013-04-09 15:53:00,89.2,56.1,29.61,SSE,158,0.0,4.2,33,0.00,,,0.00,WUHU216HW,2013-04-09 19:53:00,
2013-04-09 15:58:00,89.2,56.9,29.61,South,180,2.6,2.6,34,0.00,,,0.00,WUHU216HW,2013-04-09 19:58:00,
2013-04-09 16:03:00,89.4,57.9,29.60,West,270,0.0,2.6,35,0.00,,,0.00,WUHU216HW,2013-04-09 20:03:00,
2013-04-09 16:08:00,89.6,57.3,29.60,SW,225,0.0,1.3,34,0.00,,,0.00,WUHU216HW,2013-04-09 20:08:00,
2013-04-09 16:13:00,89.7,56.6,29.59,SSE,158,3.1,7.1,33,0.00,,,0.00,WUHU216HW,2013-04-09 20:13:00,
2013-04-09 16:19:00,89.9,55.8,29.59,SSE,158,0.0,7.1,32,0.00,,,0.00,WUHU216HW,2013-04-09 20:19:00,
2013-04-09 16:24:00,89.7,56.6,29.59,SSW,203,0.0,4.9,33,0.00,,,0.00,WUHU216HW,2013-04-09 20:24:00,
2013-04-09 16:29:00,90.3,57.1,29.59,SSW,203,1.7,1.7,33,0.00,,,0.00,WUHU216HW,2013-04-09 20:29:00,
2013-04-09 16:34:00,90.1,56.2,29.59,SSW,203,1.3,5.8,32,0.00,,,0.00,WUHU216HW,2013-04-09 20:34:00,
2013-04-09 16:39:00,89.9,56.8,29.58,South,180,0.0,5.8,33,0.00,,,0.00,WUHU216HW,2013-04-09 20:39:00,
2013-04-09 16:44:00,89.9,56.0,29.59,SSE,158,5.3,6.2,32,0.00,,,0.00,WUHU216HW,2013-04-09 20:44:00,
2013-04-09 16:49:00,89.9,56.0,29.58,North,0,0.0,12.7,32,0.00,,,0.00,WUHU216HW,2013-04-09 20:49:00,
2013-04-09 16:54:00,89.4,55.5,29.58,South,180,13.8,13.8,32,0.00,,,0.00,WUHU216HW,2013-04-09 20:54:00,
2013-04-09 16:59:00,89.2,55.4,29.58,SSE,158,6.9,14.7,32,0.00,,,0.00,WUHU216HW,2013-04-09 20:59:00,
2013-04-09 17:05:00,88.8,55.0,29.58,South,180,0.0,6.9,32,0.00,,,0.00,WUHU216HW,2013-04-09 21:05:00,
2013-04-09 17:10:00,88.8,55.0,29.57,SW,225,0.0,6.9,32,0.00,,,0.00,WUHU216HW,2013-04-09 21:10:00,
2013-04-09 17:15:00,88.8,55.0,29.57,South,180,2.0,7.6,32,0.00,,,0.00,WUHU216HW,2013-04-09 21:15:00,
2013-04-09 17:20:00,88.8,55.8,29.57,SSW,203,8.2,8.2,33,0.00,,,0.00,WUHU216HW,2013-04-09 21:20:00,
2013-04-09 17:25:00,89.2,55.2,29.57,SSE,158,0.0,8.2,32,0.00,,,0.00,WUHU216HW,2013-04-09 21:25:00,
2013-04-09 17:30:00,89.2,55.4,29.57,South,180,0.0,6.7,32,0.00,,,0.00,WUHU216HW,2013-04-09 21:30:00,
2013-04-09 17:35:00,88.8,55.0,29.57,SSE,158,2.2,3.5,32,0.00,,,0.00,WUHU216HW,2013-04-09 21:35:00,
2013-04-09 17:40:00,88.8,55.0,29.57,SW,225,3.5,4.9,32,0.00,,,0.00,WUHU216HW,2013-04-09 21:40:00,
2013-04-09 17:45:00,88.7,54.1,29.57,SW,225,0.0,8.7,31,0.00,,,0.00,WUHU216HW,2013-04-09 21:45:00,
2013-04-09 17:50:00,88.3,54.6,29.57,South,180,0.0,9.8,32,0.00,,,0.00,WUHU216HW,2013-04-09 21:50:00,
2013-04-09 17:55:00,88.3,54.6,29.57,East,90,3.3,9.8,32,0.00,,,0.00,WUHU216HW,2013-04-09 21:55:00,
2013-04-09 18:01:00,87.9,54.2,29.57,SSE,158,2.9,5.3,32,0.00,,,0.00,WUHU216HW,2013-04-09 22:01:00,
2013-04-09 18:05:00,87.6,53.9,29.57,ESE,113,0.0,5.3,32,0.00,,,0.00,WUHU216HW,2013-04-09 22:05:00,
2013-04-09 18:11:00,87.4,54.6,29.57,South,180,0.0,3.5,33,0.00,,,0.00,WUHU216HW,2013-04-09 22:11:00,
2013-04-09 18:16:00,87.4,54.6,29.57,SSW,203,0.0,7.1,33,0.00,,,0.00,WUHU216HW,2013-04-09 22:16:00,
2013-04-09 18:21:00,87.2,54.5,29.57,SW,225,0.0,7.1,33,0.00,,,0.00,WUHU216HW,2013-04-09 22:21:00,
2013-04-09 18:26:00,87.0,54.3,29.57,SW,225,0.0,7.1,33,0.00,,,0.00,WUHU216HW,2013-04-09 22:26:00,
2013-04-09 18:31:00,87.0,54.3,29.57,SSE,158,1.1,2.9,33,0.00,,,0.00,WUHU216HW,2013-04-09 22:31:00,
2013-04-09 18:36:00,86.7,54.0,29.57,SSW,203,0.0,1.3,33,0.00,,,0.00,WUHU216HW,2013-04-09 22:36:00,
2013-04-09 18:41:00,86.3,53.7,29.57,SSW,203,1.1,1.5,33,0.00,,,0.00,WUHU216HW,2013-04-09 22:41:00,
2013-04-09 18:47:00,86.1,54.3,29.57,South,180,0.0,1.5,34,0.00,,,0.00,WUHU216HW,2013-04-09 22:47:00,
2013-04-09 18:52:00,85.8,54.0,29.57,SE,135,0.0,0.0,34,0.00,,,0.00,WUHU216HW,2013-04-09 22:52:00,
2013-04-09 18:57:00,85.2,53.6,29.57,SE,135,0.0,0.0,34,0.00,,,0.00,WUHU216HW,2013-04-09 22:57:00,
2013-04-09 19:02:00,84.7,53.1,29.57,SSW,203,0.0,3.5,34,0.00,,,0.00,WUHU216HW,2013-04-09 23:02:00,
2013-04-09 19:07:00,84.3,52.7,29.57,SSE,158,0.0,3.8,34,0.00,,,0.00,WUHU216HW,2013-04-09 23:07:00,
2013-04-09 19:12:00,83.8,53.0,29.57,South,180,1.7,3.8,35,0.00,,,0.00,WUHU216HW,2013-04-09 23:12:00,
2013-04-09 19:17:00,83.1,52.4,29.57,SSE,158,0.0,1.7,35,0.00,,,0.00,WUHU216HW,2013-04-09 23:17:00,
2013-04-09 19:22:00,82.5,51.9,29.57,SSE,158,0.0,0.0,35,0.00,,,0.00,WUHU216HW,2013-04-09 23:22:00,
2013-04-09 19:27:00,82.0,52.2,29.57,SE,135,0.0,0.0,36,0.00,,,0.00,WUHU216HW,2013-04-09 23:27:00,
2013-04-09 19:32:00,81.3,51.6,29.57,SSE,158,0.0,2.9,36,0.00,,,0.00,WUHU216HW,2013-04-09 23:32:00,
2013-04-09 19:37:00,80.7,51.9,29.56,SE,135,0.0,2.9,37,0.00,,,0.00,WUHU216HW,2013-04-09 23:37:00,
2013-04-09 19:43:00,80.4,51.6,29.56,SE,135,0.0,0.0,37,0.00,,,0.00,WUHU216HW,2013-04-09 23:43:00,
2013-04-09 19:48:00,79.8,51.9,29.57,SE,135,0.0,0.0,38,0.00,,,0.00,WUHU216HW,2013-04-09 23:48:00,
2013-04-09 19:53:00,79.3,52.2,29.57,SE,135,0.0,0.0,39,0.00,,,0.00,WUHU216HW,2013-04-09 23:53:00,
2013-04-09 19:58:00,78.6,51.5,29.56,ESE,113,0.0,0.0,39,0.00,,,0.00,WUHU216HW,2013-04-09 23:58:00,
2013-04-09 20:03:00,77.9,51.7,29.57,ENE,68,0.0,0.0,40,0.00,,,0.00,WUHU216HW,2013-04-10 00:03:00,
2013-04-09 20:08:00,77.5,51.9,29.57,ESE,113,0.0,0.0,41,0.00,,,0.00,WUHU216HW,2013-04-10 00:08:00,
2013-04-09 20:18:00,77.1,51.6,29.57,ESE,113,0.0,0.0,41,0.00,,,0.00,WUHU216HW,2013-04-10 00:18:00,
2013-04-09 20:23:00,76.8,51.5,29.57,ESE,113,0.0,0.0,41,0.00,,,0.00,WUHU216HW,2013-04-10 00:23:00,
2013-04-09 20:28:00,76.6,51.8,29.57,ESE,113,0.0,0.0,42,0.00,,,0.00,WUHU216HW,2013-04-10 00:28:00,
2013-04-09 20:33:00,76.4,51.6,29.57,SE,135,0.0,0.0,42,0.00,,,0.00,WUHU216HW,2013-04-10 00:33:00,
2013-04-09 20:38:00,76.2,51.4,29.57,ESE,113,0.0,0.0,42,0.00,,,0.00,WUHU216HW,2013-04-10 00:38:00,
2013-04-09 20:43:00,76.1,51.3,29.57,East,90,0.0,0.0,42,0.00,,,0.00,WUHU216HW,2013-04-10 00:43:00,
2013-04-09 20:48:00,75.7,51.6,29.57,SE,135,0.0,0.0,43,0.00,,,0.00,WUHU216HW,2013-04-10 00:48:00,
2013-04-09 20:53:00,75.3,51.2,29.57,ESE,113,0.0,0.0,43,0.00,,,0.00,WUHU216HW,2013-04-10 00:53:00,
2013-04-09 20:58:00,75.3,51.8,29.57,SE,135,0.0,0.0,44,0.00,,,0.00,WUHU216HW,2013-04-10 00:58:00,
2013-04-09 21:03:00,75.0,51.5,29.57,ENE,68,0.0,0.0,44,0.00,,,0.00,WUHU216HW,2013-04-10 01:03:00,
2013-04-09 21:08:00,75.0,51.5,29.57,East,90,0.0,0.0,44,0.00,,,0.00,WUHU216HW,2013-04-10 01:08:00,
2013-04-09 21:13:00,75.0,51.5,29.57,ESE,113,0.0,0.0,44,0.00,,,0.00,WUHU216HW,2013-04-10 01:13:00,
2013-04-09 21:18:00,75.0,52.1,29.57,ENE,68,0.0,0.0,45,0.00,,,0.00,WUHU216HW,2013-04-10 01:18:00,
2013-04-09 21:24:00,75.0,52.1,29.57,ESE,113,0.0,0.0,45,0.00,,,0.00,WUHU216HW,2013-04-10 01:24:00,
2013-04-09 21:29:00,74.8,51.9,29.57,SE,135,0.0,3.5,45,0.00,,,0.00,WUHU216HW,2013-04-10 01:29:00,
2013-04-09 21:34:00,74.8,51.9,29.57,ESE,113,0.0,3.5,45,0.00,,,0.00,WUHU216HW,2013-04-10 01:34:00,
2013-04-09 21:39:00,74.8,51.9,29.57,East,90,0.0,2.4,45,0.00,,,0.00,WUHU216HW,2013-04-10 01:39:00,
2013-04-09 21:44:00,74.8,51.9,29.57,ESE,113,0.0,2.0,45,0.00,,,0.00,WUHU216HW,2013-04-10 01:44:00,
2013-04-09 21:49:00,74.8,51.9,29.57,ESE,113,0.0,0.0,45,0.00,,,0.00,WUHU216HW,2013-04-10 01:49:00,
2013-04-09 21:54:00,74.4,51.6,29.57,SE,135,0.0,0.0,45,0.00,,,0.00,WUHU216HW,2013-04-10 01:54:00,
2013-04-09 21:59:00,74.6,51.8,29.57,SE,135,0.0,3.8,45,0.00,,,0.00,WUHU216HW,2013-04-10 01:59:00,
2013-04-09 22:04:00,74.8,51.9,29.56,East,90,0.0,3.8,45,0.00,,,0.00,WUHU216HW,2013-04-10 02:04:00,
2013-04-09 22:09:00,74.8,51.9,29.56,ESE,113,0.0,0.0,45,0.00,,,0.00,WUHU216HW,2013-04-10 02:09:00,
2013-04-09 22:14:00,75.0,52.1,29.56,South,180,0.0,0.0,45,0.00,,,0.00,WUHU216HW,2013-04-10 02:14:00,
2013-04-09 22:19:00,75.0,52.1,29.56,SE,135,0.0,2.0,45,0.00,,,0.00,WUHU216HW,2013-04-10 02:19:00,
2013-04-09 22:24:00,74.8,51.9,29.56,SSE,158,0.0,2.0,45,0.00,,,0.00,WUHU216HW,2013-04-10 02:24:00,
2013-04-09 22:30:00,74.8,51.9,29.56,SSE,158,0.0,1.1,45,0.00,,,0.00,WUHU216HW,2013-04-10 02:30:00,
2013-04-09 22:35:00,74.8,51.9,29.55,SE,135,0.0,1.1,45,0.00,,,0.00,WUHU216HW,2013-04-10 02:35:00,
2013-04-09 22:40:00,74.8,51.9,29.55,SE,135,0.0,0.0,45,0.00,,,0.00,WUHU216HW,2013-04-10 02:40:00,
2013-04-09 22:45:00,74.6,51.8,29.55,SSW,203,0.0,0.0,45,0.00,,,0.00,WUHU216HW,2013-04-10 02:45:00,
2013-04-09 22:50:00,74.4,51.6,29.55,SSE,158,0.0,0.0,45,0.00,,,0.00,WUHU216HW,2013-04-10 02:50:00,
2013-04-09 22:55:00,74.3,51.4,29.55,South,180,0.0,0.8,45,0.00,,,0.00,WUHU216HW,2013-04-10 02:55:00,
2013-04-09 23:00:00,74.1,51.7,29.55,SSE,158,0.0,0.8,46,0.00,,,0.00,WUHU216HW,2013-04-10 03:00:00,
2013-04-09 23:05:00,73.7,51.5,29.54,ESE,113,0.0,0.0,46,0.00,,,0.00,WUHU216HW,2013-04-10 03:05:00,
2013-04-09 23:10:00,73.5,51.3,29.54,SSE,158,0.0,0.0,46,0.00,,,0.00,WUHU216HW,2013-04-10 03:10:00,
2013-04-09 23:15:00,73.4,51.2,29.54,ESE,113,0.0,0.0,46,0.00,,,0.00,WUHU216HW,2013-04-10 03:15:00,
2013-04-09 23:20:00,73.2,51.0,29.54,ESE,113,0.0,0.0,46,0.00,,,0.00,WUHU216HW,2013-04-10 03:20:00,
2013-04-09 23:25:00,73.0,51.4,29.54,ESE,113,0.0,0.0,47,0.00,,,0.00,WUHU216HW,2013-04-10 03:25:00,
2013-04-09 23:30:00,72.3,50.8,29.55,ESE,113,0.0,0.0,47,0.00,,,0.00,WUHU216HW,2013-04-10 03:30:00,
2013-04-09 23:35:00,71.9,51.1,29.55,ESE,113,0.0,0.0,48,0.00,,,0.00,WUHU216HW,2013-04-10 03:35:00,
2013-04-09 23:40:00,71.4,50.6,29.54,ESE,113,0.0,0.0,48,0.00,,,0.00,WUHU216HW,2013-04-10 03:40:00,
2013-04-09 23:46:00,71.2,51.0,29.54,SE,135,0.0,0.0,48,0.00,,,0.00,WUHU216HW,2013-04-10 03:46:00,
2013-04-09 23:51:00,70.7,50.5,29.54,SE,135,0.0,0.0,49,0.00,,,0.00,WUHU216HW,2013-04-10 03:51:00,
2013-04-09 23:56:00,70.5,51.0,29.54,ESE,113,0.0,0.0,50,0.00,,,0.00,WUHU216HW,2013-04-10 03:56:00,